Voltar ao catálogo

STARLINK-30570

AtivoComunicaçõesVLEO
NORAD 58095·PAYLOAD·🇺🇸 United States

Lançado Oct 18, 2023 de Cape Canaveral Space Force Station

Loading…

Próximas Passagens (próximas 24 horas)

TLE

AtualizadoSource: CelesTrak SupGP

Época: Sep 15, 2026, 02:10 UTC

1 58095C 23160W   26258.09076389  .00015502  00000+0  56108-3 0  2587
2 58095  42.9998  88.2013 0001443 273.7231  56.5049 15.27593919    10

Acompanhe STARLINK-30570 em tempo real com AllMySat

Download on the App Store